Location: Huntsville
(41.2590°N, 111.7678°W)
Time: 19:55:29
(UTC+00:00)

Explorer 7 - Pass Details

Date: 19 June 2021
Orbit: 484 x 676 km, 50.3° (Epoch: 30 July)

Event Time Altitude Azimuth Distance (km) Brightness Sun altitude
Rises 06:10:23 0° 268° (W) 3,020 10.8 -22.8°
Reaches altitude 10° 06:12:57 10° 277° (W) 2,100 10.1 -23.0°
Maximum altitude 06:17:24 35° 343° (NNW) 1,064 8.8 -23.2°
Drops below altitude 10° 06:21:45 10° 50° (NE) 2,037 10.0 -23.5°
Sets 06:24:12 0° 59° (ENE) 2,917 10.7 -23.6°
